FDX714 RCTP-RPLL

Flight info

Callsign FDX714
Flight time 1h 42m
Altitude 38000
Route TINHO1A TINHO Q11 POTIB M646 LAO/N0462F370 B462 CAB CAB3R
Aircraft A339/H-SADE1E2E3GHIJ3J5M1P2RWXY/LB2D1

Departure

Time 2026-05-04 01:29
Airport Taiwan Taoyuan International Airport (RCTP)

Arrival

Time 2026-05-04 03:11
Airport Ninoy Aquino International Airport (RPLL)
Time Latitude Longitude Altitude Speed Heading
2026-05-04 01:17 25.07774 121.24005 106 ft 0 kts 319°
2026-05-04 01:20 25.07771 121.24007 81 ft 2 kts 318°
2026-05-04 01:20 25.07761 121.24022 86 ft 2 kts 335°
2026-05-04 01:20 25.07745 121.24019 110 ft 0 kts 262°
2026-05-04 01:20 25.07747 121.24032 104 ft 2 kts 318°
2026-05-04 01:21 25.07735 121.24044 104 ft 2 kts 319°
2026-05-04 01:21 25.07723 121.24056 105 ft 2 kts 319°
2026-05-04 01:21 25.07710 121.24067 105 ft 2 kts 291°
2026-05-04 01:21 25.07704 121.24085 103 ft 2 kts 242°
2026-05-04 01:22 25.07708 121.24093 103 ft 0 kts 230°
2026-05-04 01:23 25.07703 121.24088 106 ft 6 kts 229°
2026-05-04 01:23 25.07648 121.24016 105 ft 15 kts 230°
2026-05-04 01:24 25.07576 121.23927 106 ft 17 kts 229°
2026-05-04 01:24 25.07497 121.23825 106 ft 18 kts 229°
2026-05-04 01:24 25.07409 121.23714 105 ft 20 kts 229°
2026-05-04 01:24 25.07314 121.23593 107 ft 21 kts 228°
2026-05-04 01:25 25.07212 121.23465 105 ft 22 kts 229°
2026-05-04 01:25 25.07123 121.23351 106 ft 19 kts 230°
2026-05-04 01:25 25.07033 121.23237 104 ft 21 kts 229°
2026-05-04 01:25 25.06935 121.23113 105 ft 22 kts 229°
2026-05-04 01:26 25.06830 121.22981 105 ft 23 kts 229°
2026-05-04 01:26 25.06724 121.22846 107 ft 23 kts 229°
2026-05-04 01:26 25.06614 121.22707 107 ft 23 kts 229°
2026-05-04 01:26 25.06508 121.22573 107 ft 22 kts 229°
2026-05-04 01:27 25.06406 121.22443 106 ft 23 kts 229°
2026-05-04 01:27 25.06325 121.22339 106 ft 3 kts 228°
2026-05-04 01:27 25.06295 121.22324 105 ft 7 kts 196°
2026-05-04 01:27 25.06246 121.22350 105 ft 9 kts 139°
2026-05-04 01:28 25.06188 121.22407 102 ft 13 kts 138°
2026-05-04 01:28 25.06166 121.22454 101 ft 7 kts 95°
2026-05-04 01:28 25.06181 121.22478 102 ft 0 kts 47°
2026-05-04 01:28 25.06182 121.22479 102 ft 0 kts 49°
2026-05-04 01:29 25.06193 121.22493 101 ft 18 kts 49°
2026-05-04 01:29 25.06660 121.23086 100 ft 131 kts 49°
2026-05-04 01:29 25.07124 121.23670 227 ft 163 kts 50°
2026-05-04 01:29 25.07918 121.24648 812 ft 177 kts 49°
2026-05-04 01:30 25.08716 121.25629 1929 ft 164 kts 51°
2026-05-04 01:30 25.09737 121.26960 2893 ft 181 kts 52°
2026-05-04 01:30 25.10230 121.27738 3185 ft 193 kts 64°
2026-05-04 01:30 25.10602 121.29224 3610 ft 211 kts 87°
2026-05-04 01:31 25.10259 121.30853 4052 ft 230 kts 115°
2026-05-04 01:31 25.09150 121.32244 4478 ft 249 kts 135°
2026-05-04 01:31 25.07823 121.33475 5261 ft 251 kts 138°
2026-05-04 01:31 25.06467 121.34733 5853 ft 259 kts 141°
2026-05-04 01:32 25.05069 121.36054 6417 ft 270 kts 142°
2026-05-04 01:32 25.03642 121.37421 6977 ft 278 kts 143°
2026-05-04 01:32 25.02175 121.38832 7678 ft 283 kts 143°
2026-05-04 01:32 25.00683 121.40275 8365 ft 288 kts 143°
2026-05-04 01:33 24.99151 121.41750 8943 ft 295 kts 144°
2026-05-04 01:33 24.97591 121.43251 9569 ft 299 kts 144°
2026-05-04 01:33 24.96009 121.44774 10193 ft 305 kts 145°
2026-05-04 01:33 24.94371 121.46346 10523 ft 322 kts 145°
2026-05-04 01:34 24.92623 121.48018 10746 ft 344 kts 145°
2026-05-04 01:34 24.90803 121.49769 11134 ft 356 kts 144°
2026-05-04 01:34 24.88944 121.51567 11748 ft 358 kts 144°
2026-05-04 01:34 24.87052 121.53394 12215 ft 365 kts 145°
2026-05-04 01:35 24.85130 121.55242 12798 ft 366 kts 146°
2026-05-04 01:35 24.83210 121.57092 13495 ft 368 kts 145°
2026-05-04 01:35 24.81262 121.58966 13899 ft 374 kts 146°
2026-05-04 01:35 24.79299 121.60851 14348 ft 377 kts 146°
2026-05-04 01:36 24.77316 121.62742 14879 ft 379 kts 146°
2026-05-04 01:36 24.75313 121.64653 15328 ft 383 kts 146°
2026-05-04 01:36 24.73299 121.66578 15875 ft 384 kts 146°
2026-05-04 01:36 24.71293 121.68492 16385 ft 388 kts 146°
2026-05-04 01:37 24.69214 121.70480 16836 ft 393 kts 145°
2026-05-04 01:37 24.67167 121.72443 17299 ft 396 kts 145°
2026-05-04 01:37 24.65079 121.74443 17788 ft 399 kts 145°
2026-05-04 01:37 24.62974 121.76455 18251 ft 402 kts 145°
2026-05-04 01:38 24.60855 121.78479 18628 ft 405 kts 145°
2026-05-04 01:38 24.58723 121.80510 19062 ft 406 kts 145°
2026-05-04 01:38 24.56583 121.82550 19364 ft 410 kts 146°
2026-05-04 01:38 24.54410 121.84613 19716 ft 412 kts 145°
2026-05-04 01:39 24.52265 121.86662 20193 ft 412 kts 145°
2026-05-04 01:39 24.50073 121.88760 20656 ft 414 kts 145°
2026-05-04 01:39 24.47897 121.90837 21044 ft 416 kts 145°
2026-05-04 01:39 24.45731 121.92902 21471 ft 419 kts 145°
2026-05-04 01:40 24.43520 121.95006 21876 ft 422 kts 145°
2026-05-04 01:40 24.41291 121.97126 22289 ft 424 kts 145°
2026-05-04 01:40 24.39029 121.99210 22693 ft 423 kts 150°
2026-05-04 01:40 24.36479 122.00751 23088 ft 414 kts 165°
2026-05-04 01:41 24.33720 122.01513 23532 ft 406 kts 180°
2026-05-04 01:41 24.30928 122.01475 23926 ft 398 kts 194°
2026-05-04 01:41 24.28309 122.00718 24320 ft 393 kts 203°
2026-05-04 01:41 24.25695 121.99796 24696 ft 395 kts 202°
2026-05-04 01:42 24.23056 121.98894 25071 ft 398 kts 202°
2026-05-04 01:42 24.20404 121.98010 25444 ft 400 kts 201°
2026-05-04 01:42 24.17728 121.97131 25808 ft 402 kts 201°
2026-05-04 01:42 24.15033 121.96251 26183 ft 404 kts 201°
2026-05-04 01:43 24.12325 121.95369 26542 ft 407 kts 201°
2026-05-04 01:43 24.09607 121.94483 26906 ft 409 kts 201°
2026-05-04 01:43 24.06871 121.93592 27295 ft 411 kts 201°
2026-05-04 01:43 24.04117 121.92695 27650 ft 414 kts 201°
2026-05-04 01:44 24.01382 121.91804 27990 ft 416 kts 201°
2026-05-04 01:44 23.98597 121.90898 28343 ft 418 kts 201°
2026-05-04 01:44 23.97651 121.90590 28449 ft 419 kts 201°
2026-05-04 01:45 23.96027 121.90061 28650 ft 420 kts 201°
2026-05-04 01:45 23.93213 121.89146 28985 ft 423 kts 201°
2026-05-04 01:45 23.87541 121.87303 29635 ft 427 kts 201°
2026-05-04 01:46 23.84683 121.86375 29968 ft 429 kts 201°
2026-05-04 01:46 23.81846 121.85454 30282 ft 432 kts 201°
2026-05-04 01:46 23.78960 121.84518 30563 ft 434 kts 201°
2026-05-04 01:46 23.76057 121.83578 30873 ft 436 kts 201°
2026-05-04 01:47 23.73134 121.82631 31149 ft 439 kts 201°
2026-05-04 01:47 23.70196 121.81679 31439 ft 441 kts 201°
2026-05-04 01:47 23.67242 121.80723 31718 ft 444 kts 201°
2026-05-04 01:47 23.64266 121.79760 31999 ft 446 kts 201°
2026-05-04 01:48 23.61279 121.78795 32265 ft 449 kts 201°
2026-05-04 01:48 23.58275 121.77824 32525 ft 451 kts 201°
2026-05-04 01:48 23.55257 121.76848 32754 ft 453 kts 201°
2026-05-04 01:48 23.52218 121.75866 32953 ft 455 kts 201°
2026-05-04 01:49 23.49206 121.74892 33140 ft 457 kts 201°
2026-05-04 01:49 23.46152 121.73906 33300 ft 459 kts 201°
2026-05-04 01:49 23.43087 121.72916 33457 ft 460 kts 201°
2026-05-04 01:49 23.40005 121.71922 33604 ft 461 kts 201°
2026-05-04 01:50 23.37966 121.71265 33703 ft 461 kts 201°
2026-05-04 01:50 23.35424 121.70447 33842 ft 462 kts 201°
2026-05-04 01:51 23.32349 121.69457 34024 ft 462 kts 201°
2026-05-04 01:51 23.29263 121.68464 34182 ft 462 kts 201°
2026-05-04 01:51 23.26184 121.67474 34344 ft 461 kts 201°
2026-05-04 01:51 23.23105 121.66484 34502 ft 461 kts 201°
2026-05-04 01:52 23.20021 121.65493 34657 ft 461 kts 201°
2026-05-04 01:52 23.16949 121.64506 34832 ft 460 kts 201°
2026-05-04 01:52 23.13870 121.63517 34981 ft 460 kts 201°
2026-05-04 01:52 23.10839 121.62544 35132 ft 460 kts 201°
2026-05-04 01:53 23.07767 121.61558 35294 ft 460 kts 201°
2026-05-04 01:53 23.04695 121.60573 35459 ft 460 kts 201°
2026-05-04 01:53 23.01624 121.59589 35619 ft 460 kts 201°
2026-05-04 01:53 22.98551 121.58605 35809 ft 459 kts 201°
2026-05-04 01:54 22.95483 121.57622 35981 ft 459 kts 201°
2026-05-04 01:54 22.92423 121.56643 36162 ft 459 kts 201°
2026-05-04 01:54 22.89365 121.55665 36346 ft 459 kts 201°
2026-05-04 01:54 22.86302 121.54685 36514 ft 459 kts 201°
2026-05-04 01:55 22.83242 121.53707 36696 ft 458 kts 201°
2026-05-04 01:55 22.80178 121.52728 36870 ft 458 kts 201°
2026-05-04 01:55 22.77120 121.51752 37062 ft 458 kts 201°
2026-05-04 01:55 22.74065 121.50777 37233 ft 457 kts 201°
2026-05-04 01:56 22.71012 121.49803 37402 ft 457 kts 201°
2026-05-04 01:56 22.67999 121.48837 37564 ft 456 kts 203°
2026-05-04 01:56 22.65033 121.47652 37738 ft 453 kts 207°
2026-05-04 01:56 22.62122 121.46354 37904 ft 453 kts 207°
2026-05-04 01:57 22.59203 121.45063 38051 ft 453 kts 207°
2026-05-04 01:57 22.56281 121.43776 38048 ft 452 kts 207°
2026-05-04 01:57 22.50458 121.41217 38047 ft 452 kts 207°
2026-05-04 01:58 22.44631 121.38658 38048 ft 452 kts 207°
2026-05-04 01:58 22.38797 121.36097 38043 ft 452 kts 207°
2026-05-04 01:59 22.32965 121.33541 38041 ft 452 kts 207°
2026-05-04 01:59 22.27137 121.30988 38040 ft 452 kts 207°
2026-05-04 02:00 22.21343 121.28452 38037 ft 452 kts 207°
2026-05-04 02:00 22.15514 121.25903 38032 ft 452 kts 207°
2026-05-04 02:01 22.09673 121.23351 38028 ft 452 kts 207°
2026-05-04 02:01 22.03832 121.20802 38030 ft 453 kts 207°
2026-05-04 02:02 21.98018 121.18267 38030 ft 453 kts 207°
2026-05-04 02:02 21.92163 121.15715 38027 ft 453 kts 207°
2026-05-04 02:03 21.86315 121.13168 38026 ft 453 kts 207°
2026-05-04 02:03 21.80496 121.10636 38025 ft 454 kts 207°
2026-05-04 02:04 21.74632 121.08086 38018 ft 454 kts 207°
2026-05-04 02:04 21.68773 121.05542 38012 ft 454 kts 207°
2026-05-04 02:05 21.62902 121.02994 38010 ft 455 kts 207°
2026-05-04 02:05 21.57023 121.00445 38012 ft 455 kts 207°
2026-05-04 02:06 21.51179 120.97913 38012 ft 456 kts 207°
2026-05-04 02:06 21.45288 120.95363 38006 ft 456 kts 207°
2026-05-04 02:07 21.39392 120.92813 38003 ft 456 kts 207°
2026-05-04 02:07 21.33493 120.90264 38004 ft 457 kts 207°
2026-05-04 02:08 21.27616 120.87728 37998 ft 457 kts 207°
2026-05-04 02:08 21.21722 120.85185 37997 ft 458 kts 206°
2026-05-04 02:09 21.15806 120.82636 38014 ft 458 kts 206°
2026-05-04 02:09 21.09892 120.80090 38006 ft 458 kts 206°
2026-05-04 02:10 21.03958 120.77575 37991 ft 460 kts 204°
2026-05-04 02:10 20.97724 120.75823 38000 ft 466 kts 194°
2026-05-04 02:11 20.91272 120.75102 38001 ft 470 kts 189°
2026-05-04 02:11 20.84739 120.74576 37993 ft 470 kts 189°
2026-05-04 02:12 20.78217 120.74036 38004 ft 470 kts 189°
2026-05-04 02:12 20.71697 120.73498 38003 ft 469 kts 189°
2026-05-04 02:13 20.65183 120.72961 38000 ft 469 kts 189°
2026-05-04 02:13 20.58714 120.72429 37997 ft 468 kts 189°
2026-05-04 02:14 20.52212 120.71894 37996 ft 468 kts 189°
2026-05-04 02:14 20.45726 120.71361 37998 ft 468 kts 188°
2026-05-04 02:15 20.39230 120.70827 37991 ft 468 kts 188°
2026-05-04 02:15 20.32746 120.70296 37990 ft 467 kts 188°
2026-05-04 02:16 20.26253 120.69764 37991 ft 467 kts 188°
2026-05-04 02:16 20.19810 120.69236 37992 ft 467 kts 188°
2026-05-04 02:17 20.14664 120.68815 37991 ft 467 kts 188°
2026-05-04 02:17 20.08189 120.68285 37991 ft 466 kts 188°
2026-05-04 02:18 20.02813 120.67845 37997 ft 466 kts 188°
2026-05-04 02:18 19.96341 120.67316 37995 ft 466 kts 188°
2026-05-04 02:19 19.89879 120.66789 37997 ft 465 kts 187°
2026-05-04 02:19 19.83423 120.66262 37991 ft 465 kts 187°
2026-05-04 02:20 19.76965 120.65736 37992 ft 465 kts 187°
2026-05-04 02:20 19.70502 120.65210 37990 ft 465 kts 187°
2026-05-04 02:21 19.64091 120.64688 37985 ft 465 kts 187°
2026-05-04 02:21 19.57624 120.64162 37986 ft 465 kts 187°
2026-05-04 02:22 19.51153 120.63637 37992 ft 466 kts 187°
2026-05-04 02:22 19.44712 120.63114 37978 ft 466 kts 187°
2026-05-04 02:23 19.38233 120.62589 37981 ft 467 kts 187°
2026-05-04 02:23 19.31747 120.62063 37986 ft 467 kts 187°
2026-05-04 02:24 19.25249 120.61537 37983 ft 467 kts 187°
2026-05-04 02:24 19.18758 120.61012 37981 ft 468 kts 187°
2026-05-04 02:25 19.12299 120.60490 37981 ft 468 kts 187°
2026-05-04 02:25 19.05784 120.59964 37982 ft 468 kts 187°
2026-05-04 02:26 18.99307 120.59441 37981 ft 468 kts 187°
2026-05-04 02:26 18.92800 120.58917 37978 ft 469 kts 187°
2026-05-04 02:27 18.86298 120.58393 37976 ft 469 kts 187°
2026-05-04 02:27 18.79780 120.57869 37973 ft 469 kts 187°
2026-05-04 02:28 18.73265 120.57345 37975 ft 469 kts 187°
2026-05-04 02:28 18.66747 120.56821 37975 ft 469 kts 187°
2026-05-04 02:29 18.60274 120.56301 37964 ft 470 kts 187°
2026-05-04 02:29 18.53740 120.55777 37962 ft 470 kts 187°
2026-05-04 02:30 18.47219 120.55253 37952 ft 470 kts 187°
2026-05-04 02:30 18.40690 120.54730 37939 ft 470 kts 187°
2026-05-04 02:31 18.34201 120.54210 37938 ft 470 kts 187°
2026-05-04 02:31 18.27680 120.53688 37937 ft 470 kts 187°
2026-05-04 02:32 18.21159 120.53196 37936 ft 471 kts 185°
2026-05-04 02:32 18.14575 120.53529 37934 ft 475 kts 175°
2026-05-04 02:33 18.08322 120.54682 37934 ft 476 kts 173°
2026-05-04 02:33 18.01824 120.55898 37940 ft 476 kts 173°
2026-05-04 02:34 17.95288 120.57107 37940 ft 476 kts 173°
2026-05-04 02:34 17.88750 120.58314 37948 ft 476 kts 173°
2026-05-04 02:35 17.82216 120.59521 37946 ft 476 kts 173°
2026-05-04 02:35 17.75734 120.60718 37953 ft 475 kts 173°
2026-05-04 02:36 17.69228 120.61918 37959 ft 475 kts 173°
2026-05-04 02:36 17.62720 120.63118 37971 ft 474 kts 173°
2026-05-04 02:37 17.56222 120.64317 37974 ft 474 kts 173°
2026-05-04 02:37 17.49723 120.65516 37962 ft 474 kts 173°
2026-05-04 02:38 17.43235 120.66712 37979 ft 473 kts 173°
2026-05-04 02:38 17.36748 120.67907 37988 ft 472 kts 173°
2026-05-04 02:39 17.30293 120.69094 37964 ft 469 kts 173°
2026-05-04 02:39 17.23861 120.70277 37974 ft 470 kts 173°
2026-05-04 02:40 17.17457 120.71462 37988 ft 471 kts 173°
2026-05-04 02:40 17.11001 120.72654 38012 ft 471 kts 173°
2026-05-04 02:41 17.04549 120.73845 38020 ft 471 kts 173°
2026-05-04 02:41 16.98095 120.75036 38025 ft 471 kts 173°
2026-05-04 02:42 16.91643 120.76223 38032 ft 471 kts 173°
2026-05-04 02:42 16.85186 120.77413 38035 ft 471 kts 174°
2026-05-04 02:43 16.78761 120.78594 38041 ft 471 kts 174°
2026-05-04 02:43 16.72310 120.79780 38045 ft 471 kts 174°
2026-05-04 02:44 16.65852 120.80965 38040 ft 469 kts 174°
2026-05-04 02:44 16.59435 120.82142 38029 ft 468 kts 174°
2026-05-04 02:45 16.53019 120.83320 38026 ft 469 kts 174°
2026-05-04 02:45 16.46629 120.84491 38026 ft 469 kts 174°
2026-05-04 02:46 16.40194 120.85669 38025 ft 469 kts 174°
2026-05-04 02:46 16.33758 120.86845 38022 ft 470 kts 174°
2026-05-04 02:47 16.27316 120.88024 38017 ft 470 kts 174°
2026-05-04 02:47 16.20878 120.89204 38008 ft 469 kts 174°
2026-05-04 02:48 16.14459 120.90375 38001 ft 469 kts 174°
2026-05-04 02:48 16.08071 120.91539 37989 ft 467 kts 174°
2026-05-04 02:49 16.01645 120.92713 37987 ft 470 kts 173°
2026-05-04 02:49 15.95208 120.93888 37976 ft 468 kts 174°
2026-05-04 02:50 15.88769 120.95061 37974 ft 469 kts 173°
2026-05-04 02:50 15.82353 120.96229 37474 ft 467 kts 173°
2026-05-04 02:51 15.79143 120.96812 36877 ft 467 kts 173°
2026-05-04 02:51 15.76020 120.97382 36735 ft 457 kts 173°
2026-05-04 02:51 15.72923 120.97948 36617 ft 445 kts 173°
2026-05-04 02:51 15.69912 120.98497 36509 ft 434 kts 173°
2026-05-04 02:52 15.66965 120.99034 36302 ft 426 kts 173°
2026-05-04 02:52 15.64058 120.99561 35873 ft 424 kts 173°
2026-05-04 02:52 15.61157 121.00086 35434 ft 422 kts 173°
2026-05-04 02:52 15.58269 121.00609 35013 ft 421 kts 173°
2026-05-04 02:53 15.55385 121.01132 34606 ft 419 kts 173°
2026-05-04 02:53 15.52547 121.01649 34451 ft 408 kts 173°
2026-05-04 02:53 15.49788 121.01971 34308 ft 389 kts 183°
2026-05-04 02:53 15.47175 121.01770 34062 ft 376 kts 193°
2026-05-04 02:54 15.44672 121.01080 33498 ft 371 kts 204°
2026-05-04 02:54 15.42248 121.00088 32934 ft 368 kts 204°
2026-05-04 02:54 15.39901 120.99150 32452 ft 365 kts 203°
2026-05-04 02:54 15.37533 120.98217 31932 ft 362 kts 202°
2026-05-04 02:55 15.32818 120.96367 30662 ft 365 kts 202°
2026-05-04 02:55 15.30428 120.95429 29976 ft 368 kts 201°
2026-05-04 02:55 15.28030 120.94487 29188 ft 370 kts 201°
2026-05-04 02:56 15.25609 120.93538 28414 ft 371 kts 201°
2026-05-04 02:56 15.23196 120.92592 27673 ft 370 kts 201°
2026-05-04 02:56 15.20818 120.91658 26952 ft 369 kts 201°
2026-05-04 02:56 15.18417 120.90717 26245 ft 368 kts 201°
2026-05-04 02:57 15.16024 120.89779 25548 ft 366 kts 201°
2026-05-04 02:57 15.13646 120.88847 24875 ft 365 kts 201°
2026-05-04 02:57 15.11274 120.87918 24208 ft 363 kts 201°
2026-05-04 02:57 15.08915 120.86994 23556 ft 361 kts 200°
2026-05-04 02:58 15.06573 120.86077 22798 ft 359 kts 200°
2026-05-04 02:58 15.04242 120.85164 22044 ft 357 kts 200°
2026-05-04 02:58 15.01957 120.84270 21398 ft 353 kts 200°
2026-05-04 02:58 14.99711 120.83391 21194 ft 334 kts 200°
2026-05-04 02:59 14.97589 120.82560 20941 ft 320 kts 200°
2026-05-04 02:59 14.95501 120.81744 20276 ft 321 kts 200°
2026-05-04 02:59 14.93411 120.80927 19691 ft 320 kts 200°
2026-05-04 02:59 14.91356 120.80124 19307 ft 318 kts 200°
2026-05-04 03:00 14.89291 120.79318 18905 ft 316 kts 200°
2026-05-04 03:00 14.87239 120.78518 18501 ft 314 kts 200°
2026-05-04 03:00 14.85191 120.77719 18064 ft 313 kts 199°
2026-05-04 03:00 14.83161 120.76928 17612 ft 311 kts 199°
2026-05-04 03:01 14.81146 120.76143 17152 ft 308 kts 199°
2026-05-04 03:01 14.79141 120.75362 16703 ft 306 kts 199°
2026-05-04 03:01 14.77171 120.74595 16281 ft 304 kts 199°
2026-05-04 03:01 14.75189 120.73818 15854 ft 303 kts 199°
2026-05-04 03:02 14.73219 120.73051 15429 ft 300 kts 199°
2026-05-04 03:02 14.71309 120.72308 15215 ft 288 kts 199°
2026-05-04 03:02 14.69436 120.71580 14768 ft 287 kts 199°
2026-05-04 03:02 14.67563 120.70853 14302 ft 287 kts 198°
2026-05-04 03:03 14.65685 120.70123 13749 ft 290 kts 198°
2026-05-04 03:03 14.63807 120.69394 13121 ft 293 kts 198°
2026-05-04 03:03 14.61829 120.68956 12494 ft 291 kts 177°
2026-05-04 03:03 14.59877 120.69399 11888 ft 287 kts 152°
2026-05-04 03:04 14.58138 120.70396 11298 ft 285 kts 147°
2026-05-04 03:04 14.56461 120.71460 10716 ft 279 kts 146°
2026-05-04 03:04 14.54811 120.72499 10136 ft 275 kts 147°
2026-05-04 03:04 14.53198 120.73485 9547 ft 271 kts 148°
2026-05-04 03:05 14.51583 120.74447 8922 ft 266 kts 148°
2026-05-04 03:05 14.49986 120.75388 8309 ft 262 kts 147°
2026-05-04 03:05 14.48419 120.76316 7713 ft 258 kts 147°
2026-05-04 03:05 14.46880 120.77226 7126 ft 252 kts 147°
2026-05-04 03:06 14.45377 120.78115 6551 ft 246 kts 147°
2026-05-04 03:06 14.43904 120.78986 5957 ft 242 kts 146°
2026-05-04 03:06 14.42449 120.79847 5349 ft 239 kts 146°
2026-05-04 03:06 14.41150 120.80838 4878 ft 225 kts 125°
2026-05-04 03:07 14.40556 120.82224 4663 ft 205 kts 96°
2026-05-04 03:07 14.40691 120.83656 4267 ft 200 kts 68°
2026-05-04 03:07 14.41128 120.84467 4181 ft 190 kts 59°
2026-05-04 03:07 14.41797 120.85592 4201 ft 180 kts 61°
2026-05-04 03:08 14.42614 120.87077 3992 ft 184 kts 62°
2026-05-04 03:08 14.43284 120.88243 3531 ft 195 kts 61°
2026-05-04 03:08 14.43733 120.89051 3390 ft 192 kts 61°
2026-05-04 03:08 14.44401 120.90228 3033 ft 190 kts 61°
2026-05-04 03:09 14.45060 120.91413 2591 ft 189 kts 62°
2026-05-04 03:09 14.45701 120.92608 2074 ft 190 kts 62°
2026-05-04 03:09 14.46322 120.93764 1923 ft 176 kts 62°
2026-05-04 03:09 14.46906 120.94844 1505 ft 171 kts 63°
2026-05-04 03:10 14.47468 120.95867 1195 ft 158 kts 60°
2026-05-04 03:10 14.48014 120.96805 874 ft 148 kts 62°
2026-05-04 03:10 14.48510 120.97686 600 ft 133 kts 62°
2026-05-04 03:10 14.48943 120.98466 382 ft 118 kts 65°
2026-05-04 03:11 14.49379 120.99296 421 ft 125 kts 64°
2026-05-04 03:11 14.49826 121.00082 108 ft 140 kts 63°
2026-05-04 03:11 14.50272 121.00882 66 ft 116 kts 60°
2026-05-04 03:11 14.50511 121.01320 65 ft 25 kts 60°
2026-05-04 03:12 14.50538 121.01369 66 ft 19 kts 59°
2026-05-04 03:12 14.50646 121.01557 69 ft 33 kts 59°
2026-05-04 03:12 14.50750 121.01701 66 ft 24 kts 44°
2026-05-04 03:12 14.50845 121.01778 69 ft 11 kts 30°
2026-05-04 03:13 14.50895 121.01745 66 ft 9 kts 282°
2026-05-04 03:13 14.50869 121.01683 66 ft 10 kts 242°
2026-05-04 03:13 14.50832 121.01611 68 ft 12 kts 242°
2026-05-04 03:13 14.50786 121.01528 64 ft 14 kts 240°
2026-05-04 03:14 14.50732 121.01433 69 ft 16 kts 240°
2026-05-04 03:14 14.50673 121.01328 66 ft 18 kts 240°
2026-05-04 03:14 14.50611 121.01218 68 ft 16 kts 239°
2026-05-04 03:14 14.50591 121.01146 70 ft 9 kts 284°
2026-05-04 03:15 14.50622 121.01089 68 ft 7 kts 273°
2026-05-04 03:15 14.50601 121.01055 64 ft 6 kts 238°
2026-05-04 03:15 14.50589 121.01008 69 ft 7 kts 278°
2026-05-04 03:15 14.50623 121.00977 64 ft 7 kts 329°
2026-05-04 03:16 14.50637 121.00969 67 ft 0 kts 331°
2026-05-04 03:16 14.50639 121.00968 68 ft 0 kts 331°